This is the latest recevied weather packets stored in our database for station/object N3WPH. If no packets are shown the sender has not sent any weather packets the latest 10 day(s).
| Time | Temp. | Humidity | Pressure | Rain* | Wind** | Luminosity | Snow |
|---|---|---|---|---|---|---|---|
| 1777758747 | 10.56° C | 50% | 1011.5 hPa | 0 mm | - | 102 W/m² | - |
| 1777758445 | 10.56° C | 45% | 1011.8 hPa | 0 mm | - | 73 W/m² | - |
| 1777758142 | 10.56° C | 48% | 1011.5 hPa | 0 mm | - | 73 W/m² | - |
| 1777757839 | 10.56° C | 46% | 1011.6 hPa | 0 mm | - | 87 W/m² | - |
| 1777757536 | 10.56° C | 42% | 1011.6 hPa | 0 mm | - | 93 W/m² | - |
| 1777757235 | 10.56° C | 45% | 1011.5 hPa | 0 mm | - | 112 W/m² | - |
| 1777756932 | 10.56° C | 46% | 1011.4 hPa | 0 mm | - | 107 W/m² | - |
| 1777756628 | 10.56° C | 47% | 1011.5 hPa | 0 mm | - | 102 W/m² | - |
| 1777756325 | 10.56° C | 50% | 1011.3 hPa | 0 mm | - | 117 W/m² | - |
| 1777756023 | 10.56° C | 45% | 1011.4 hPa | 0 mm | - | 128 W/m² | - |
| 1777755719 | 11.11° C | 46% | 1011.5 hPa | 0 mm | - | 146 W/m² | - |
| 1777755417 | 10.56° C | 46% | 1011.4 hPa | 0 mm | - | 182 W/m² | - |
| 1777755113 | 10.56° C | 45% | 1011.3 hPa | 0 mm | - | 130 W/m² | - |
| 1777754810 | 11.11° C | 48% | 1011.5 hPa | 0 mm | - | 111 W/m² | - |
| 1777754508 | 11.11° C | 45% | 1011.4 hPa | 0 mm | - | 117 W/m² | - |
| 1777754204 | 11.11° C | 44% | 1011.6 hPa | 0 mm | - | 143 W/m² | - |
| 1777753903 | 11.11° C | 43% | 1011.5 hPa | 0 mm | - | 175 W/m² | - |
| 1777753597 | 11.67° C | 46% | 1011.5 hPa | 0 mm | - | 190 W/m² | - |
| 1777753295 | 12.78° C | 41% | 1011.6 hPa | 0 mm | - | 204 W/m² | - |
| 1777752992 | 12.22° C | 43% | 1011.5 hPa | 0 mm | - | 584 W/m² | - |
| 1777752688 | 12.78° C | 39% | 1011.4 hPa | 0 mm | - | 619 W/m² | - |
| 1777752384 | 12.78° C | 42% | 1011.7 hPa | 0 mm | - | 573 W/m² | - |
| 1777752082 | 11.67° C | 47% | 1011.8 hPa | 0 mm | - | 586 W/m² | - |
| 1777751780 | 11.67° C | 43% | 1011.7 hPa | 0 mm | - | 315 W/m² | - |
| 1777751475 | 11.67° C | 45% | 1012.1 hPa | 0 mm | - | 318 W/m² | - |
* Rain latest hour (hover to see other rain measurements)
** Current wind speed in m/s (hover to see current wind gust speed)